PAL418 RPLL-KLAX

Flight info

Callsign PAL418
Flight time N/A
Altitude 29000
Route JOM2R JOM A590 MDE V75 CANAI DCT UKATA/N0499F310 DCT 35N150E 37N160E 38N170E/N0491F330 41N180E 44N170W 45N160W 44N150W 41N140W/N0476F350 39N130W DCT CEPAS DCT PIRAT DCT ROBIE DCT BURGL IRNMN2
Aircraft B77W/H-SDE1E2E3FGHIJ2J3J4J5M1RWXY/LB1D1

Departure

Time 2026-04-30 21:21
Airport Ninoy Aquino International Airport (RPLL)

Arrival

Time N/A
Airport Los Angeles International Airport (KLAX)
Time Latitude Longitude Altitude Speed Heading
2026-04-30 20:48 14.50897 121.01420 59 ft 0 kts 331°
2026-04-30 20:59 14.50886 121.01426 57 ft 2 kts 334°
2026-04-30 20:59 14.50872 121.01433 58 ft 2 kts 333°
2026-04-30 21:00 14.50851 121.01445 59 ft 2 kts 310°
2026-04-30 21:00 14.50841 121.01473 59 ft 2 kts 265°
2026-04-30 21:01 14.50848 121.01492 60 ft 0 kts 240°
2026-04-30 21:01 14.50848 121.01493 60 ft 0 kts 240°
2026-04-30 21:01 14.50848 121.01492 60 ft 0 kts 240°
2026-04-30 21:04 14.50847 121.01492 60 ft 0 kts 240°
2026-04-30 21:04 14.50811 121.01427 58 ft 9 kts 240°
2026-04-30 21:05 14.50777 121.01365 56 ft 9 kts 240°
2026-04-30 21:05 14.50747 121.01308 55 ft 8 kts 241°
2026-04-30 21:05 14.50706 121.01235 52 ft 8 kts 240°
2026-04-30 21:05 14.50685 121.01199 51 ft 8 kts 239°
2026-04-30 21:06 14.50655 121.01147 50 ft 8 kts 239°
2026-04-30 21:06 14.50625 121.01093 48 ft 8 kts 240°
2026-04-30 21:06 14.50596 121.01040 47 ft 8 kts 240°
2026-04-30 21:06 14.50567 121.00987 45 ft 8 kts 240°
2026-04-30 21:07 14.50541 121.00941 45 ft 6 kts 240°
2026-04-30 21:07 14.50520 121.00902 44 ft 5 kts 240°
2026-04-30 21:07 14.50500 121.00866 44 ft 6 kts 240°
2026-04-30 21:07 14.50474 121.00819 44 ft 7 kts 240°
2026-04-30 21:08 14.50454 121.00784 45 ft 3 kts 240°
2026-04-30 21:08 14.50446 121.00770 45 ft 0 kts 240°
2026-04-30 21:08 14.50437 121.00752 45 ft 6 kts 240°
2026-04-30 21:08 14.50398 121.00682 45 ft 15 kts 240°
2026-04-30 21:09 14.50346 121.00588 44 ft 14 kts 240°
2026-04-30 21:09 14.50300 121.00507 43 ft 12 kts 240°
2026-04-30 21:09 14.50263 121.00440 44 ft 9 kts 240°
2026-04-30 21:09 14.50236 121.00390 43 ft 7 kts 240°
2026-04-30 21:10 14.50210 121.00346 43 ft 5 kts 231°
2026-04-30 21:10 14.50207 121.00343 42 ft 0 kts 225°
2026-04-30 21:14 14.50205 121.00339 42 ft 2 kts 225°
2026-04-30 21:15 14.50179 121.00332 41 ft 5 kts 169°
2026-04-30 21:15 14.50139 121.00337 40 ft 5 kts 196°
2026-04-30 21:15 14.50111 121.00313 40 ft 5 kts 239°
2026-04-30 21:15 14.50095 121.00285 40 ft 4 kts 239°
2026-04-30 21:16 14.50081 121.00261 39 ft 4 kts 240°
2026-04-30 21:16 14.50058 121.00219 39 ft 8 kts 240°
2026-04-30 21:16 14.50031 121.00172 38 ft 6 kts 240°
2026-04-30 21:16 14.50008 121.00130 37 ft 6 kts 240°
2026-04-30 21:17 14.49984 121.00088 36 ft 6 kts 240°
2026-04-30 21:17 14.49963 121.00049 36 ft 5 kts 240°
2026-04-30 21:17 14.49960 121.00043 36 ft 0 kts 240°
2026-04-30 21:18 14.49954 121.00032 35 ft 6 kts 241°
2026-04-30 21:18 14.49934 120.99994 35 ft 5 kts 240°
2026-04-30 21:18 14.49913 120.99971 35 ft 3 kts 212°
2026-04-30 21:18 14.49893 120.99966 35 ft 3 kts 180°
2026-04-30 21:19 14.49861 120.99975 35 ft 4 kts 154°
2026-04-30 21:19 14.49837 120.99986 35 ft 2 kts 154°
2026-04-30 21:19 14.49820 120.99996 35 ft 5 kts 143°
2026-04-30 21:19 14.49804 121.00048 36 ft 10 kts 76°
2026-04-30 21:20 14.49871 121.00169 38 ft 39 kts 60°
2026-04-30 21:20 14.50106 121.00593 41 ft 95 kts 59°
2026-04-30 21:20 14.50519 121.01340 48 ft 145 kts 60°
2026-04-30 21:20 14.51101 121.02378 97 ft 183 kts 62°
2026-04-30 21:21 14.51740 121.03509 626 ft 181 kts 61°
2026-04-30 21:21 14.52358 121.04630 1191 ft 183 kts 62°
2026-04-30 21:21 14.53699 121.07068 1691 ft 209 kts 61°
2026-04-30 21:22 14.54420 121.08365 2114 ft 212 kts 62°
2026-04-30 21:22 14.56724 121.12521 3339 ft 235 kts 63°
2026-04-30 21:23 14.57293 121.14149 3641 ft 246 kts 81°
2026-04-30 21:23 14.57517 121.15905 4219 ft 248 kts 83°
2026-04-30 21:23 14.57912 121.19413 5298 ft 255 kts 83°
2026-04-30 21:24 14.58123 121.21262 5811 ft 260 kts 83°
2026-04-30 21:24 14.58333 121.23096 6324 ft 262 kts 83°
2026-04-30 21:24 14.58548 121.24970 6853 ft 265 kts 83°
2026-04-30 21:24 14.58765 121.26871 7362 ft 268 kts 83°
2026-04-30 21:25 14.59198 121.30716 8370 ft 273 kts 83°
2026-04-30 21:25 14.59417 121.32658 8845 ft 276 kts 83°
2026-04-30 21:25 14.59639 121.34637 9345 ft 278 kts 83°
2026-04-30 21:26 14.60087 121.38623 10265 ft 285 kts 83°
2026-04-30 21:26 14.60319 121.40691 10499 ft 298 kts 83°
2026-04-30 21:27 14.60820 121.45157 10774 ft 331 kts 83°
2026-04-30 21:27 14.61091 121.47582 10948 ft 346 kts 83°
2026-04-30 21:27 14.61371 121.50081 11163 ft 360 kts 83°
2026-04-30 21:28 14.61968 121.55427 11659 ft 385 kts 83°
2026-04-30 21:28 14.62273 121.58168 12116 ft 390 kts 83°
2026-04-30 21:28 14.62896 121.63768 13139 ft 397 kts 83°
2026-04-30 21:29 14.63213 121.66614 13602 ft 401 kts 83°
2026-04-30 21:29 14.64169 121.75244 15070 ft 410 kts 83°
2026-04-30 21:30 14.64823 121.81154 15990 ft 416 kts 83°
2026-04-30 21:31 14.65808 121.90099 17318 ft 425 kts 84°
2026-04-30 21:31 14.66477 121.96184 18138 ft 431 kts 84°
2026-04-30 21:32 14.67156 122.02384 18967 ft 437 kts 84°
2026-04-30 21:32 14.67498 122.05511 19309 ft 441 kts 84°
2026-04-30 21:32 14.67841 122.08648 19669 ft 444 kts 84°
2026-04-30 21:32 14.68188 122.11827 20075 ft 446 kts 84°
2026-04-30 21:33 14.68536 122.15016 20453 ft 449 kts 84°
2026-04-30 21:33 14.69236 122.21458 21110 ft 456 kts 84°
2026-04-30 21:33 14.69601 122.24689 21449 ft 459 kts 82°
2026-04-30 21:34 14.70310 122.27915 21758 ft 462 kts 73°
2026-04-30 21:34 14.73182 122.33894 22349 ft 470 kts 54°
2026-04-30 21:34 14.75271 122.36459 22665 ft 473 kts 45°
2026-04-30 21:35 14.77779 122.38710 22973 ft 476 kts 38°
2026-04-30 21:35 14.80415 122.40755 23318 ft 478 kts 37°
2026-04-30 21:35 14.83078 122.42800 23669 ft 479 kts 37°
2026-04-30 21:35 14.85771 122.44874 24020 ft 482 kts 37°
2026-04-30 21:36 14.88454 122.46943 24337 ft 484 kts 36°
2026-04-30 21:36 14.91187 122.49055 24633 ft 487 kts 37°
2026-04-30 21:37 14.99373 122.55396 25630 ft 494 kts 36°
2026-04-30 21:37 15.02100 122.57510 25942 ft 496 kts 36°
2026-04-30 21:37 15.04882 122.59670 26248 ft 499 kts 36°
2026-04-30 21:37 15.07682 122.61845 26587 ft 501 kts 36°
2026-04-30 21:38 15.10441 122.63989 26903 ft 503 kts 36°
2026-04-30 21:38 15.13269 122.66187 27215 ft 505 kts 36°
2026-04-30 21:38 15.16073 122.68367 27483 ft 509 kts 36°
2026-04-30 21:38 15.18927 122.70587 27769 ft 511 kts 36°
2026-04-30 21:39 15.21790 122.72817 28083 ft 513 kts 36°
2026-04-30 21:39 15.24626 122.75024 28456 ft 513 kts 36°
2026-04-30 21:39 15.27459 122.77231 28866 ft 513 kts 36°
2026-04-30 21:39 15.30334 122.79470 28921 ft 515 kts 36°
2026-04-30 21:40 15.36015 122.83901 28934 ft 510 kts 36°
2026-04-30 21:40 15.41690 122.88327 28936 ft 512 kts 36°
2026-04-30 21:41 15.47405 122.92789 28945 ft 512 kts 36°
2026-04-30 21:41 15.53073 122.97217 28947 ft 512 kts 36°
2026-04-30 21:42 15.58757 123.01661 28946 ft 511 kts 36°
2026-04-30 21:42 15.64446 123.06112 28944 ft 511 kts 36°
2026-04-30 21:43 15.70129 123.10561 28947 ft 511 kts 36°
2026-04-30 21:43 15.75830 123.15028 28946 ft 511 kts 36°
2026-04-30 21:44 15.81478 123.19456 28951 ft 512 kts 36°
2026-04-30 21:44 15.87201 123.23947 28952 ft 513 kts 36°
2026-04-30 21:45 15.92872 123.28400 28949 ft 513 kts 36°
2026-04-30 21:45 15.98553 123.32864 28951 ft 513 kts 36°
2026-04-30 21:46 16.04248 123.37343 28953 ft 513 kts 36°
2026-04-30 21:46 16.09953 123.41833 28951 ft 513 kts 36°
2026-04-30 21:47 16.15672 123.46336 28952 ft 514 kts 36°
2026-04-30 21:47 16.21352 123.50813 28953 ft 513 kts 36°
2026-04-30 21:48 16.27045 123.55303 28955 ft 514 kts 35°
2026-04-30 21:48 16.32734 123.59793 28952 ft 515 kts 35°
2026-04-30 21:49 16.38462 123.64317 28950 ft 515 kts 35°
2026-04-30 21:49 16.44146 123.68811 28950 ft 515 kts 36°
2026-04-30 21:50 16.49855 123.73327 28947 ft 515 kts 36°
2026-04-30 21:50 16.55564 123.77847 28948 ft 514 kts 36°
2026-04-30 21:51 16.61270 123.82368 28950 ft 514 kts 36°
2026-04-30 21:51 16.66961 123.86879 28946 ft 515 kts 36°
2026-04-30 21:52 16.72669 123.91409 28950 ft 515 kts 36°
2026-04-30 21:52 16.78380 123.95943 28949 ft 516 kts 36°
2026-04-30 21:53 16.84106 124.00494 28952 ft 515 kts 36°
2026-04-30 21:53 16.89792 124.05017 28950 ft 515 kts 36°
2026-04-30 21:54 16.95511 124.09570 28954 ft 515 kts 36°
2026-04-30 21:54 17.01188 124.14092 28954 ft 514 kts 35°
2026-04-30 21:55 17.06871 124.18622 28960 ft 514 kts 35°
2026-04-30 21:55 17.12564 124.23164 28960 ft 515 kts 35°
2026-04-30 21:56 17.18290 124.27736 28965 ft 516 kts 35°
2026-04-30 21:56 17.23960 124.32267 28962 ft 515 kts 35°
2026-04-30 21:57 17.29687 124.36848 28964 ft 516 kts 35°
2026-04-30 21:57 17.35391 124.41412 28962 ft 515 kts 35°
2026-04-30 21:58 17.41070 124.45963 28959 ft 515 kts 35°
2026-04-30 21:58 17.46757 124.50521 28960 ft 516 kts 35°
2026-04-30 21:59 17.52460 124.55098 28959 ft 515 kts 35°
2026-04-30 22:00 17.61000 124.61958 28956 ft 516 kts 35°
2026-04-30 22:00 17.69574 124.68854 28948 ft 517 kts 35°
2026-04-30 22:01 17.75262 124.73433 28947 ft 517 kts 35°
2026-04-30 22:01 17.80996 124.78053 28947 ft 517 kts 35°
2026-04-30 22:02 17.86684 124.82639 28948 ft 518 kts 35°
2026-04-30 22:02 17.92420 124.87269 28950 ft 518 kts 35°
2026-04-30 22:03 17.98146 124.91894 28947 ft 519 kts 35°
2026-04-30 22:03 18.03873 124.96523 28950 ft 528 kts 35°
2026-04-30 22:04 18.09771 125.01294 28956 ft 540 kts 35°
2026-04-30 22:05 18.18812 125.08617 28956 ft 549 kts 35°
2026-04-30 22:05 18.24862 125.13524 28955 ft 549 kts 35°
2026-04-30 22:06 18.30875 125.18406 28960 ft 549 kts 35°
2026-04-30 22:06 18.39958 125.25786 28958 ft 549 kts 35°
2026-04-30 22:07 18.45986 125.30691 28959 ft 549 kts 35°
2026-04-30 22:07 18.52024 125.35607 28960 ft 549 kts 35°
2026-04-30 22:08 18.58098 125.40557 28962 ft 549 kts 35°
2026-04-30 22:08 18.64143 125.45488 28961 ft 550 kts 35°
2026-04-30 22:09 18.70181 125.50419 28964 ft 550 kts 35°
2026-04-30 22:09 18.76210 125.55345 28968 ft 550 kts 35°
2026-04-30 22:10 18.82248 125.60284 28971 ft 551 kts 34°
2026-04-30 22:10 18.88330 125.65265 28973 ft 550 kts 35°
2026-04-30 22:11 18.97373 125.72678 28965 ft 550 kts 35°
2026-04-30 22:12 19.03443 125.77660 28970 ft 551 kts 35°
2026-04-30 22:12 19.09487 125.82624 28972 ft 551 kts 35°
2026-04-30 22:13 19.15525 125.87589 28971 ft 550 kts 35°
2026-04-30 22:13 19.21572 125.92567 28971 ft 551 kts 35°
2026-04-30 22:14 19.27612 125.97543 28975 ft 551 kts 35°
2026-04-30 22:14 19.33678 126.02544 28972 ft 552 kts 35°
2026-04-30 22:15 19.39716 126.07529 28973 ft 552 kts 35°
2026-04-30 22:15 19.45792 126.12549 28971 ft 551 kts 35°
2026-04-30 22:16 19.51815 126.17530 28974 ft 550 kts 35°
2026-04-30 22:17 19.63904 126.27542 28974 ft 551 kts 35°
2026-04-30 22:17 19.72963 126.35059 28973 ft 550 kts 35°
2026-04-30 22:18 19.81978 126.42550 28976 ft 550 kts 35°
2026-04-30 22:19 19.91024 126.50077 28975 ft 549 kts 35°
2026-04-30 22:20 20.00041 126.57591 28976 ft 552 kts 35°
2026-04-30 22:20 20.09104 126.65155 28979 ft 551 kts 35°
2026-04-30 22:21 20.15149 126.70207 28969 ft 552 kts 35°
2026-04-30 22:21 20.21191 126.75261 28970 ft 552 kts 35°
2026-04-30 22:22 20.27195 126.80290 28978 ft 551 kts 35°
2026-04-30 22:22 20.33237 126.85354 28987 ft 552 kts 35°
2026-04-30 22:23 20.39279 126.90424 28989 ft 552 kts 35°
2026-04-30 22:23 20.45305 126.95486 28992 ft 551 kts 35°
2026-04-30 22:24 20.51310 127.00533 28993 ft 552 kts 35°
2026-04-30 22:24 20.57340 127.05609 28993 ft 550 kts 35°
2026-04-30 22:25 20.63373 127.10693 28993 ft 551 kts 35°
2026-04-30 22:25 20.69354 127.15736 28994 ft 551 kts 35°
2026-04-30 22:26 20.78400 127.23377 28994 ft 552 kts 35°
2026-04-30 22:27 20.84436 127.28481 28996 ft 554 kts 35°
2026-04-30 22:27 20.93486 127.36143 28996 ft 554 kts 35°
2026-04-30 22:28 21.02537 127.43779 28997 ft 553 kts 34°
2026-04-30 22:29 21.14805 127.53775 28998 ft 554 kts 34°
2026-04-30 22:31 21.36287 127.71361 28989 ft 555 kts 34°
2026-04-30 22:32 21.51591 127.83938 28991 ft 554 kts 34°
2026-04-30 22:33 21.66884 127.96542 28992 ft 556 kts 34°
2026-04-30 22:35 21.82221 128.09218 28994 ft 555 kts 34°
2026-04-30 22:36 21.97533 128.21907 28995 ft 556 kts 34°
2026-04-30 22:37 22.09772 128.32075 28997 ft 557 kts 34°
2026-04-30 22:38 22.22053 128.42302 28996 ft 556 kts 34°
2026-04-30 22:39 22.31228 128.49957 28997 ft 557 kts 34°
2026-04-30 22:40 22.49612 128.65337 28997 ft 557 kts 35°
2026-04-30 22:41 22.64949 128.78207 28989 ft 557 kts 35°
2026-04-30 22:43 22.83312 128.93666 28997 ft 559 kts 35°
2026-04-30 22:44 22.95576 129.04021 29016 ft 559 kts 35°
2026-04-30 22:45 23.14420 129.18826 29014 ft 556 kts 32°
2026-04-30 22:47 23.33519 129.33348 29017 ft 558 kts 32°
2026-04-30 22:48 23.46212 129.43054 29013 ft 559 kts 32°
2026-04-30 22:49 23.65262 129.57672 29020 ft 559 kts 32°
2026-04-30 22:51 23.84321 129.72353 29013 ft 559 kts 32°
2026-04-30 22:52 23.93837 129.79703 29013 ft 560 kts 32°
2026-04-30 22:53 24.06573 129.89560 29021 ft 561 kts 32°
2026-04-30 22:53 24.16084 129.96939 29013 ft 560 kts 32°
2026-04-30 22:55 24.31928 130.09261 29019 ft 559 kts 32°
2026-04-30 22:56 24.44725 130.19008 29015 ft 559 kts 31°
2026-04-30 22:57 24.60760 130.31073 29026 ft 559 kts 31°
2026-04-30 22:58 24.73582 130.40759 29019 ft 559 kts 31°
2026-04-30 22:59 24.92821 130.55344 29021 ft 560 kts 31°